Location: Peterborough
(44.3091°N, 78.3197°W)
Time: 20:05:33
(UTC-04:00)

Vanguard 2 Rocket - Pass Details

Date: 24 March 2023
Orbit: 554 x 3314 km, 32.9° (Epoch: 06 June)

Event Time Altitude Azimuth Distance (km) Brightness Sun altitude
Rises 23:38:11 0° 261° (W) 4,457 10.7 -38.8°
Reaches altitude 10° 23:40:48 10° 255° (WSW) 3,780 10.2 -39.0°
Enters shadow 23:46:05 35° 231° (SW) 2,835 9.2 -39.5°
